QPF
0.01 0.00 0.00 0.01 0.02 0.04 0.05 0.03 0.03 0.03 0.03 0.03 0.02 0.03 0.04 0.04 0.03 0.02 0.02 0.02 0.01 0.01 0.00 0.00 0.00 0.00 0.00 0.00 0.00 0.00 0.01 0.02 0.04 0.05 0.06 0.12 0.15 0.17 0.23 0.25 0.17 0.12 0.14 0.20
0.00 0.00 0.00 0.00 0.01 0.01 0.02 0.01 0.01 0.01 0.01 0.01 0.02 0.02 0.03 0.04 0.05 0.04 0.03 0.02 0.01 0.01 0.00 0.00 0.00 0.00 0.00 0.00 0.00 0.00 0.01 0.03 0.05 0.05 0.05 0.06 0.08 0.08 0.11 0.15 0.18 0.15 0.16 0.24
0.00 0.00 0.00 0.00 0.00 0.00 0.00 0.00 0.00 0.00 0.00 0.00 0.00 0.01 0.01 0.02 0.03 0.03 0.03 0.02 0.01 0.01 0.00 0.00 0.00 0.00 0.00 0.00 0.00 0.00 0.01 0.04 0.06 0.04 0.03 0.02 0.02 0.03 0.05 0.06 0.10 0.10 0.10 0.14
0.00 0.00 0.00 0.00 0.00 0.00 0.00 0.00 0.00 0.01 0.00 0.00 0.01 0.01 0.01 0.01 0.03 0.03 0.03 0.02 0.02 0.01 0.01 0.01 0.01 0.00 0.00 0.00 0.00 0.00 0.02 0.04 0.03 0.02 0.01 0.01 0.01 0.02 0.03 0.02 0.04 0.03 0.03 0.06
0.00 0.00 0.00 0.00 0.00 0.00 0.00 0.00 0.01 0.02 0.02 0.01 0.01 0.01 0.01 0.02 0.05 0.06 0.04 0.03 0.02 0.01 0.02 0.03 0.03 0.03 0.02 0.02 0.01 0.01 0.02 0.03 0.01 0.00 0.00 0.00 0.01 0.03 0.03 0.01 0.01 0.01 0.01 0.03
0.00 0.00 0.00 0.00 0.00 0.00 0.00 0.01 0.03 0.05 0.06 0.02 0.01 0.01 0.01 0.01 0.02 0.02 0.02 0.02 0.02 0.03 0.07 0.11 0.11 0.11 0.10 0.08 0.07 0.04 0.03 0.01 0.00 0.00 0.00 0.00 0.01 0.04 0.04 0.02 0.01 0.01 0.01 0.02
0.00 0.00 0.00 0.00 0.00 0.00 0.01 0.03 0.04 0.05 0.07 0.05 0.05 0.07 0.05 0.03 0.01 0.01 0.01 0.01 0.03 0.06 0.12 0.19 0.22 0.22 0.18 0.16 0.12 0.05 0.01 0.00 0.00 0.00 0.00 0.00 0.01 0.02 0.03 0.02 0.01 0.01 0.00 0.01
0.00 0.00 0.00 0.00 0.00 0.01 0.02 0.05 0.09 0.09 0.08 0.08 0.06 0.08 0.07 0.06 0.03 0.02 0.01 0.02 0.06 0.12 0.16 0.18 0.18 0.19 0.17 0.12 0.06 0.02 0.00 0.00 0.00 0.00 0.00 0.00 0.01 0.01 0.02 0.01 0.00 0.00 0.00 0.00
0.00 0.00 0.00 0.00 0.00 0.02 0.03 0.04 0.08 0.13 0.10 0.06 0.05 0.08 0.08 0.07 0.07 0.05 0.04 0.06 0.12 0.24 0.30 0.29 0.29 0.30 0.19 0.08 0.03 0.01 0.00 0.00 0.00 0.00 0.00 0.00 0.00 0.00 0.00 0.00 0.00 0.00 0.00 0.00
0.00 0.00 0.00 0.00 0.00 0.02 0.07 0.11 0.13 0.19 0.17 0.11 0.11 0.13 0.15 0.14 0.16 0.16 0.19 0.22 0.26 0.34 0.41 0.47 0.53 0.46 0.20 0.06 0.02 0.01 0.00 0.00 0.00 0.00 0.00 0.00 0.00 0.00 0.00 0.00 0.00 0.00 0.00 0.00
0.00 0.00 0.00 0.00 0.01 0.03 0.07 0.13 0.15 0.18 0.21 0.19 0.15 0.21 0.24 0.26 0.33 0.42 0.47 0.40 0.34 0.38 0.41 0.48 0.51 0.38 0.16 0.04 0.02 0.01 0.00 0.00 0.00 0.00 0.00 0.01 0.01 0.01 0.01 0.01 0.00 0.00 0.00 0.00
0.00 0.00 0.00 0.01 0.04 0.05 0.13 0.21 0.28 0.27 0.20 0.17 0.15 0.28 0.29 0.23 0.24 0.31 0.39 0.30 0.18 0.16 0.18 0.20 0.19 0.13 0.09 0.05 0.02 0.01 0.01 0.01 0.02 0.02 0.02 0.02 0.02 0.03 0.02 0.01 0.00 0.00 0.00 0.00
0.00 0.00 0.00 0.01 0.02 0.04 0.15 0.25 0.24 0.19 0.15 0.10 0.10 0.16 0.11 0.05 0.06 0.12 0.18 0.19 0.13 0.06 0.04 0.04 0.04 0.04 0.04 0.04 0.04 0.04 0.05 0.06 0.08 0.09 0.06 0.04 0.04 0.03 0.02 0.02 0.01 0.00 0.00 0.00
0.00 0.00 0.01 0.02 0.03 0.06 0.16 0.25 0.21 0.13 0.09 0.05 0.04 0.03 0.01 0.01 0.02 0.04 0.08 0.07 0.05 0.03 0.02 0.02 0.02 0.02 0.03 0.04 0.05 0.07 0.08 0.11 0.16 0.21 0.20 0.12 0.08 0.06 0.04 0.03 0.04 0.03 0.01 0.00
0.00 0.00 0.00 0.01 0.03 0.08 0.19 0.25 0.17 0.07 0.03 0.01 0.01 0.00 0.01 0.01 0.02 0.05 0.07 0.07 0.04 0.04 0.03 0.02 0.02 0.03 0.02 0.02 0.04 0.06 0.09 0.15 0.25 0.36 0.38 0.27 0.17 0.11 0.09 0.09 0.09 0.06 0.04 0.02
0.00 0.00 0.00 0.01 0.02 0.04 0.10 0.09 0.05 0.02 0.01 0.01 0.01 0.02 0.03 0.03 0.08 0.14 0.17 0.15 0.10 0.08 0.08 0.07 0.07 0.06 0.05 0.05 0.05 0.06 0.09 0.15 0.24 0.35 0.40 0.37 0.27 0.17 0.12 0.15 0.16 0.12 0.10 0.07
0.00 0.00 0.00 0.00 0.02 0.03 0.04 0.03 0.03 0.03 0.03 0.01 0.02 0.03 0.05 0.13 0.32 0.38 0.34 0.30 0.21 0.15 0.14 0.13 0.13 0.13 0.13 0.12 0.10 0.10 0.12 0.16 0.23 0.31 0.37 0.35 0.27 0.20 0.15 0.19 0.20 0.17 0.14 0.13
0.00 0.00 0.00 0.01 0.03 0.09 0.06 0.04 0.05 0.06 0.06 0.04 0.05 0.07 0.18 0.41 0.56 0.41 0.32 0.31 0.26 0.17 0.14 0.14 0.14 0.12 0.11 0.11 0.09 0.10 0.11 0.13 0.14 0.16 0.16 0.17 0.17 0.16 0.15 0.16 0.16 0.15 0.14 0.15
0.00 0.00 0.00 0.00 0.04 0.15 0.08 0.03 0.04 0.06 0.08 0.09 0.12 0.16 0.22 0.24 0.17 0.11 0.09 0.12 0.14 0.10 0.07 0.06 0.06 0.05 0.03 0.03 0.03 0.03 0.03 0.03 0.03 0.04 0.04 0.05 0.05 0.05 0.05 0.05 0.06 0.09 0.11 0.12
0.00 0.00 0.00 0.00 0.01 0.03 0.03 0.01 0.01 0.03 0.07 0.06 0.07 0.09 0.06 0.03 0.02 0.03 0.04 0.04 0.03 0.02 0.01 0.01 0.01 0.01 0.00 0.00 0.00 0.00 0.00 0.00 0.00 0.00 0.00 0.00 0.00 0.00 0.00 0.00 0.01 0.02 0.04 0.05
0.00 0.00 0.00 0.00 0.00 0.01 0.00 0.00 0.00 0.02 0.04 0.02 0.02 0.02 0.00 0.00 0.00 0.01 0.03 0.03 0.01 0.00 0.00 0.00 0.00 0.00 0.00 0.00 0.00 0.00 0.00 0.00 0.00 0.00 0.00 0.00 0.00 0.00 0.00 0.00 0.00 0.00 0.00 0.01
0.00 0.00 0.00 0.00 0.00 0.00 0.00 0.00 0.00 0.01 0.01 0.01 0.01 0.00 0.00 0.00 0.00 0.00 0.01 0.02 0.01 0.00 0.00 0.00 0.00 0.00 0.00 0.00 0.00 0.00 0.00 0.00 0.00 0.00 0.00 0.00 0.00 0.00 0.00 0.00 0.00 0.00 0.00 0.00
0.00 0.00 0.00 0.00 0.00 0.00 0.00 0.00 0.00 0.00 0.00 0.00 0.00 0.00 0.00 0.00 0.00 0.00 0.00 0.01 0.01 0.00 0.00 0.00 0.00 0.00 0.00 0.00 0.00 0.00 0.00 0.00 0.00 0.00 0.00 0.00 0.00 0.00 0.00 0.00 0.00 0.00 0.00 0.00
0.00 0.00 0.00 0.00 0.00 0.00 0.00 0.00 0.00 0.00 0.00 0.00 0.00 0.00 0.00 0.00 0.00 0.00 0.00 0.01 0.01 0.00 0.00 0.00 0.00 0.00 0.00 0.00 0.00 0.00 0.00 0.00 0.00 0.00 0.00 0.00 0.00 0.00 0.00 0.00 0.00 0.00 0.00 0.00
0.00 0.00 0.00 0.00 0.00 0.00 0.00 0.00 0.00 0.00 0.00 0.00 0.00 0.00 0.00 0.00 0.00 0.00 0.00 0.01 0.00 0.00 0.00 0.00 0.00 0.00 0.00 0.00 0.00 0.00 0.00 0.00 0.00 0.00 0.00 0.00 0.00 0.00 0.00 0.00 0.00 0.00 0.00 0.00
0.00 0.00 0.00 0.00 0.00 0.00 0.00 0.00 0.00 0.00 0.00 0.00 0.00 0.00 0.00 0.00 0.00 0.00 0.00 0.00 0.00 0.00 0.00 0.00 0.00 0.00 0.00 0.00 0.00 0.00 0.00 0.00 0.00 0.00 0.00 0.00 0.00 0.00 0.00 0.00 0.00 0.00 0.00 0.00
MSLP
1011.14 1011.71 1012.19 1012.57 1012.85 1013.07 1013.24 1013.37 1013.45 1013.45 1013.36 1013.13 1012.74 1012.20 1011.50 1010.68 1009.80 1008.90 1008.04 1007.27 1006.63 1006.15 1005.83 1005.67 1005.65 1005.77 1005.99 1006.31 1006.70 1007.16 1007.67 1008.21 1008.78 1009.35 1009.92 1010.45 1010.94 1011.36 1011.69 1011.95 1012.13 1012.25 1012.35 1012.45
1011.53 1011.98 1012.33 1012.60 1012.81 1013.00 1013.20 1013.41 1013.62 1013.78 1013.83 1013.72 1013.41 1012.88 1012.14 1011.22 1010.19 1009.13 1008.11 1007.21 1006.47 1005.92 1005.57 1005.41 1005.41 1005.55 1005.79 1006.11 1006.50 1006.95 1007.45 1008.00 1008.58 1009.18 1009.78 1010.34 1010.85 1011.27 1011.60 1011.83 1011.98 1012.08 1012.17 1012.27
1011.82 1012.13 1012.35 1012.49 1012.62 1012.79 1013.01 1013.31 1013.64 1013.94 1014.15 1014.17 1013.95 1013.46 1012.70 1011.72 1010.59 1009.40 1008.27 1007.25 1006.43 1005.82 1005.45 1005.29 1005.30 1005.45 1005.70 1006.04 1006.43 1006.89 1007.39 1007.94 1008.52 1009.13 1009.73 1010.29 1010.79 1011.20 1011.51 1011.71 1011.85 1011.93 1012.00 1012.10
1012.11 1012.28 1012.36 1012.39 1012.44 1012.58 1012.83 1013.19 1013.63 1014.07 1014.40 1014.55 1014.42 1013.99 1013.25 1012.24 1011.05 1009.79 1008.57 1007.47 1006.58 1005.93 1005.52 1005.35 1005.36 1005.52 1005.79 1006.13 1006.53 1006.98 1007.48 1008.02 1008.59 1009.18 1009.76 1010.30 1010.77 1011.14 1011.42 1011.60 1011.71 1011.78 1011.85 1011.94
1012.49 1012.54 1012.50 1012.44 1012.43 1012.54 1012.80 1013.22 1013.73 1014.27 1014.71 1014.95 1014.91 1014.54 1013.83 1012.83 1011.63 1010.33 1009.06 1007.92 1006.97 1006.28 1005.84 1005.64 1005.63 1005.78 1006.04 1006.37 1006.77 1007.20 1007.68 1008.20 1008.74 1009.29 1009.83 1010.32 1010.75 1011.08 1011.33 1011.48 1011.58 1011.65 1011.71 1011.81
1013.04 1013.00 1012.88 1012.75 1012.69 1012.78 1013.04 1013.48 1014.03 1014.62 1015.12 1015.43 1015.45 1015.13 1014.47 1013.51 1012.32 1011.03 1009.75 1008.59 1007.61 1006.88 1006.40 1006.16 1006.11 1006.22 1006.45 1006.75 1007.11 1007.51 1007.95 1008.43 1008.92 1009.42 1009.90 1010.34 1010.72 1011.01 1011.23 1011.37 1011.46 1011.53 1011.60 1011.70
1013.78 1013.67 1013.51 1013.34 1013.26 1013.33 1013.57 1014.00 1014.55 1015.14 1015.65 1015.98 1016.04 1015.76 1015.15 1014.24 1013.10 1011.85 1010.60 1009.44 1008.45 1007.68 1007.16 1006.86 1006.75 1006.79 1006.95 1007.19 1007.49 1007.83 1008.22 1008.64 1009.07 1009.51 1009.94 1010.32 1010.65 1010.92 1011.11 1011.25 1011.35 1011.43 1011.52 1011.64
1014.66 1014.53 1014.35 1014.18 1014.08 1014.13 1014.35 1014.74 1015.25 1015.79 1016.27 1016.58 1016.63 1016.38 1015.81 1014.96 1013.89 1012.71 1011.50 1010.37 1009.39 1008.59 1008.02 1007.64 1007.45 1007.40 1007.47 1007.62 1007.84 1008.11 1008.42 1008.77 1009.14 1009.52 1009.89 1010.24 1010.53 1010.78 1010.97 1011.12 1011.25 1011.36 1011.48 1011.61
1015.59 1015.48 1015.31 1015.14 1015.05 1015.09 1015.27 1015.60 1016.03 1016.49 1016.89 1017.14 1017.17 1016.92 1016.39 1015.60 1014.61 1013.51 1012.37 1011.28 1010.31 1009.50 1008.87 1008.42 1008.13 1007.98 1007.94 1007.98 1008.10 1008.29 1008.52 1008.80 1009.11 1009.44 1009.77 1010.08 1010.37 1010.61 1010.82 1010.99 1011.15 1011.30 1011.45 1011.61
1016.47 1016.39 1016.25 1016.12 1016.04 1016.07 1016.21 1016.46 1016.80 1017.16 1017.46 1017.63 1017.60 1017.34 1016.84 1016.11 1015.20 1014.18 1013.12 1012.09 1011.14 1010.31 1009.63 1009.10 1008.71 1008.45 1008.30 1008.24 1008.26 1008.35 1008.51 1008.73 1008.99 1009.28 1009.58 1009.88 1010.17 1010.42 1010.66 1010.86 1011.05 1011.23 1011.41 1011.60
1017.20 1017.16 1017.08 1016.99 1016.94 1016.95 1017.06 1017.25 1017.49 1017.73 1017.93 1018.01 1017.92 1017.65 1017.16 1016.48 1015.64 1014.70 1013.71 1012.73 1011.81 1010.97 1010.25 1009.65 1009.17 1008.80 1008.54 1008.39 1008.32 1008.34 1008.44 1008.61 1008.83 1009.10 1009.39 1009.68 1009.98 1010.25 1010.50 1010.74 1010.95 1011.15 1011.35 1011.55
1017.74 1017.75 1017.73 1017.69 1017.68 1017.70 1017.79 1017.92 1018.08 1018.23 1018.32 1018.32 1018.17 1017.87 1017.39 1016.75 1015.97 1015.10 1014.17 1013.23 1012.33 1011.48 1010.72 1010.06 1009.51 1009.07 1008.73 1008.50 1008.37 1008.33 1008.39 1008.53 1008.73 1008.98 1009.26 1009.55 1009.85 1010.13 1010.39 1010.63 1010.85 1011.05 1011.24 1011.43
1018.11 1018.18 1018.22 1018.24 1018.27 1018.33 1018.40 1018.50 1018.60 1018.67 1018.69 1018.61 1018.42 1018.08 1017.60 1016.98 1016.25 1015.42 1014.54 1013.63 1012.74 1011.89 1011.11 1010.41 1009.81 1009.31 1008.93 1008.65 1008.48 1008.42 1008.45 1008.57 1008.76 1008.99 1009.26 1009.54 1009.83 1010.09 1010.34 1010.55 1010.75 1010.92 1011.09 1011.25
1018.39 1018.51 1018.62 1018.70 1018.79 1018.87 1018.96 1019.05 1019.11 1019.13 1019.09 1018.96 1018.72 1018.36 1017.87 1017.26 1016.54 1015.74 1014.88 1014.00 1013.12 1012.27 1011.48 1010.76 1010.14 1009.63 1009.22 1008.93 1008.75 1008.68 1008.71 1008.81 1008.99 1009.20 1009.45 1009.70 1009.94 1010.17 1010.37 1010.53 1010.68 1010.79 1010.90 1011.01
1018.68 1018.86 1019.02 1019.16 1019.30 1019.42 1019.53 1019.62 1019.67 1019.66 1019.58 1019.41 1019.13 1018.74 1018.24 1017.62 1016.90 1016.10 1015.26 1014.38 1013.51 1012.66 1011.88 1011.17 1010.56 1010.05 1009.66 1009.39 1009.22 1009.16 1009.19 1009.29 1009.44 1009.62 1009.82 1010.02 1010.20 1010.36 1010.49 1010.58 1010.64 1010.68 1010.71 1010.75
1019.08 1019.30 1019.50 1019.69 1019.87 1020.02 1020.16 1020.25 1020.29 1020.27 1020.16 1019.95 1019.64 1019.22 1018.69 1018.05 1017.31 1016.51 1015.66 1014.79 1013.93 1013.10 1012.34 1011.66 1011.08 1010.62 1010.27 1010.03 1009.89 1009.85 1009.88 1009.96 1010.08 1010.22 1010.35 1010.48 1010.58 1010.65 1010.69 1010.70 1010.67 1010.62 1010.57 1010.53
1019.65 1019.88 1020.11 1020.32 1020.52 1020.69 1020.84 1020.93 1020.96 1020.92 1020.78 1020.54 1020.20 1019.74 1019.17 1018.50 1017.74 1016.92 1016.07 1015.20 1014.35 1013.56 1012.83 1012.21 1011.69 1011.28 1010.99 1010.80 1010.70 1010.68 1010.71 1010.77 1010.84 1010.92 1010.98 1011.02 1011.03 1011.01 1010.96 1010.88 1010.77 1010.64 1010.52 1010.40
1020.37 1020.61 1020.83 1021.04 1021.23 1021.39 1021.52 1021.60 1021.60 1021.53 1021.36 1021.08 1020.70 1020.20 1019.59 1018.89 1018.11 1017.28 1016.42 1015.56 1014.74 1013.99 1013.32 1012.76 1012.31 1011.98 1011.75 1011.62 1011.56 1011.55 1011.57 1011.60 1011.63 1011.63 1011.62 1011.57 1011.50 1011.40 1011.27 1011.12 1010.95 1010.77 1010.59 1010.42
1021.19 1021.40 1021.59 1021.76 1021.92 1022.04 1022.13 1022.16 1022.13 1022.01 1021.79 1021.47 1021.04 1020.50 1019.86 1019.14 1018.34 1017.50 1016.65 1015.82 1015.04 1014.34 1013.74 1013.25 1012.88 1012.62 1012.46 1012.38 1012.35 1012.35 1012.36 1012.36 1012.33 1012.28 1012.19 1012.08 1011.94 1011.78 1011.60 1011.41 1011.21 1011.01 1010.80 1010.61
1021.97 1022.13 1022.26 1022.38 1022.47 1022.53 1022.56 1022.54 1022.44 1022.27 1022.01 1021.64 1021.17 1020.60 1019.93 1019.19 1018.39 1017.56 1016.74 1015.95 1015.22 1014.58 1014.04 1013.63 1013.33 1013.14 1013.03 1012.99 1012.99 1012.99 1012.99 1012.96 1012.89 1012.79 1012.65 1012.49 1012.31 1012.12 1011.93 1011.74 1011.55 1011.35 1011.16 1010.96
1022.58 1022.67 1022.74 1022.78 1022.80 1022.79 1022.75 1022.66 1022.51 1022.28 1021.97 1021.56 1021.06 1020.47 1019.80 1019.06 1018.27 1017.47 1016.69 1015.94 1015.27 1014.69 1014.22 1013.87 1013.63 1013.49 1013.43 1013.42 1013.43 1013.44 1013.43 1013.37 1013.28 1013.15 1012.99 1012.80 1012.62 1012.44 1012.26 1012.10 1011.94 1011.78 1011.62 1011.45
1022.91 1022.94 1022.93 1022.90 1022.85 1022.77 1022.66 1022.51 1022.31 1022.04 1021.69 1021.27 1020.75 1020.16 1019.50 1018.79 1018.04 1017.28 1016.54 1015.86 1015.24 1014.72 1014.30 1014.00 1013.80 1013.70 1013.66 1013.66 1013.68 1013.69 1013.67 1013.61 1013.51 1013.37 1013.21 1013.04 1012.87 1012.72 1012.59 1012.48 1012.37 1012.26 1012.15 1012.01
1022.92 1022.88 1022.81 1022.71 1022.60 1022.47 1022.32 1022.13 1021.90 1021.61 1021.25 1020.83 1020.33 1019.76 1019.13 1018.46 1017.76 1017.06 1016.38 1015.75 1015.18 1014.71 1014.33 1014.05 1013.87 1013.78 1013.74 1013.74 1013.76 1013.77 1013.75 1013.70 1013.61 1013.49 1013.36 1013.22 1013.10 1012.99 1012.91 1012.86 1012.81 1012.75 1012.68 1012.57
1022.61 1022.50 1022.38 1022.25 1022.11 1021.96 1021.79 1021.59 1021.36 1021.07 1020.73 1020.33 1019.87 1019.35 1018.77 1018.16 1017.52 1016.88 1016.26 1015.68 1015.16 1014.71 1014.34 1014.07 1013.89 1013.78 1013.73 1013.71 1013.72 1013.73 1013.72 1013.68 1013.62 1013.55 1013.46 1013.37 1013.30 1013.25 1013.22 1013.21 1013.21 1013.20 1013.16 1013.08
1022.02 1021.88 1021.73 1021.58 1021.44 1021.30 1021.14 1020.97 1020.77 1020.52 1020.22 1019.87 1019.47 1019.00 1018.50 1017.95 1017.38 1016.80 1016.23 1015.69 1015.19 1014.75 1014.38 1014.09 1013.87 1013.73 1013.65 1013.61 1013.60 1013.61 1013.61 1013.61 1013.59 1013.56 1013.53 1013.50 1013.49 1013.49 1013.50 1013.53 1013.56 1013.57 1013.54 1013.47
1021.26 1021.09 1020.94 1020.81 1020.69 1020.59 1020.48 1020.37 1020.22 1020.03 1019.79 1019.50 1019.16 1018.77 1018.33 1017.85 1017.35 1016.82 1016.29 1015.78 1015.29 1014.84 1014.44 1014.11 1013.85 1013.66 1013.53 1013.46 1013.43 1013.43 1013.46 1013.49 1013.52 1013.55 1013.58 1013.61 1013.64 1013.69 1013.73 1013.78 1013.82 1013.83 1013.81 1013.74
Thickness
5762 5746 5735 5741 5745 5741 5737 5731 5727 5737 5749 5746 5743 5748 5764 5772 5772 5774 5777 5779 5784 5792 5805 5812 5813 5812 5807 5804 5799 5794 5790 5786 5781 5773 5767 5762 5759 5758 5756 5755 5753 5750 5746 5742
5739 5733 5746 5750 5748 5741 5733 5722 5719 5727 5737 5735 5730 5738 5755 5764 5765 5769 5771 5774 5777 5785 5794 5801 5806 5806 5802 5799 5796 5792 5787 5782 5778 5773 5768 5764 5760 5756 5754 5752 5749 5746 5743 5739
5732 5739 5752 5745 5736 5727 5721 5713 5711 5711 5717 5720 5713 5717 5736 5752 5759 5763 5768 5771 5775 5778 5784 5791 5795 5797 5797 5795 5793 5789 5783 5778 5773 5769 5764 5759 5754 5751 5747 5745 5743 5742 5739 5736
5736 5744 5742 5733 5726 5721 5706 5719 5714 5707 5694 5685 5694 5681 5713 5728 5738 5748 5754 5760 5766 5773 5778 5782 5786 5788 5790 5791 5789 5783 5777 5773 5769 5766 5761 5756 5750 5744 5743 5742 5740 5738 5735 5731
5725 5734 5729 5721 5723 5722 5710 5717 5707 5697 5684 5674 5678 5671 5693 5711 5715 5728 5740 5750 5759 5766 5768 5770 5774 5778 5779 5780 5778 5773 5769 5766 5764 5762 5759 5753 5748 5744 5741 5737 5734 5730 5728 5725
5726 5733 5727 5719 5719 5716 5707 5697 5688 5675 5665 5655 5668 5663 5672 5682 5692 5708 5725 5738 5750 5760 5760 5759 5760 5762 5762 5762 5760 5759 5759 5757 5757 5755 5753 5749 5743 5738 5734 5730 5726 5723 5721 5719
5703 5710 5714 5713 5698 5697 5687 5665 5647 5643 5642 5648 5670 5664 5660 5671 5683 5692 5704 5719 5734 5747 5750 5748 5746 5746 5745 5744 5743 5745 5748 5748 5749 5748 5746 5743 5739 5734 5729 5725 5721 5718 5714 5712
5675 5674 5690 5691 5679 5672 5670 5658 5636 5626 5629 5643 5662 5657 5654 5667 5677 5686 5695 5706 5718 5727 5735 5738 5740 5738 5735 5735 5734 5736 5739 5742 5743 5742 5740 5737 5734 5730 5725 5722 5718 5714 5710 5707
5664 5663 5678 5676 5669 5659 5648 5642 5643 5632 5631 5630 5643 5652 5657 5664 5670 5678 5684 5692 5699 5706 5715 5722 5726 5726 5725 5726 5730 5733 5735 5736 5738 5737 5734 5731 5727 5724 5721 5718 5715 5710 5705 5701
5660 5642 5650 5653 5649 5639 5630 5628 5621 5620 5618 5620 5632 5632 5630 5640 5649 5661 5670 5677 5686 5694 5701 5707 5711 5712 5716 5721 5727 5730 5732 5732 5733 5731 5728 5725 5722 5719 5716 5713 5708 5703 5700 5696
5646 5623 5616 5617 5608 5603 5606 5606 5605 5608 5613 5616 5616 5617 5623 5627 5637 5647 5657 5666 5675 5682 5690 5697 5702 5705 5712 5721 5725 5728 5729 5729 5727 5725 5722 5718 5715 5713 5710 5705 5701 5698 5694 5691
5633 5605 5590 5594 5601 5605 5599 5594 5594 5595 5602 5612 5614 5607 5622 5626 5635 5643 5651 5661 5671 5678 5685 5692 5700 5707 5714 5719 5723 5726 5727 5725 5723 5720 5715 5712 5708 5704 5700 5696 5693 5690 5687 5685
5619 5591 5572 5572 5580 5591 5591 5594 5597 5597 5597 5604 5608 5604 5620 5624 5631 5640 5647 5658 5670 5680 5688 5693 5699 5706 5714 5719 5722 5723 5723 5721 5718 5714 5708 5703 5699 5696 5692 5689 5687 5684 5682 5680
5613 5583 5570 5560 5566 5577 5577 5586 5597 5600 5596 5599 5599 5601 5611 5618 5624 5634 5645 5657 5671 5681 5690 5695 5697 5701 5708 5715 5718 5719 5718 5716 5713 5707 5701 5696 5691 5689 5688 5686 5683 5680 5679 5677
5598 5580 5579 5576 5575 5573 5571 5578 5588 5592 5594 5593 5593 5596 5599 5608 5616 5627 5640 5653 5665 5674 5682 5688 5692 5696 5702 5707 5710 5711 5711 5710 5707 5701 5695 5690 5687 5686 5685 5683 5680 5678 5676 5675
5590 5580 5576 5573 5576 5577 5571 5572 5579 5585 5587 5589 5592 5593 5598 5607 5616 5625 5633 5644 5653 5661 5669 5676 5682 5687 5690 5692 5694 5698 5699 5701 5700 5695 5689 5686 5683 5681 5680 5679 5678 5675 5671 5669
5584 5579 5574 5569 5580 5580 5565 5563 5569 5575 5578 5582 5584 5585 5597 5605 5612 5618 5626 5635 5644 5652 5659 5665 5670 5674 5676 5679 5681 5683 5685 5687 5687 5683 5680 5677 5675 5674 5674 5674 5672 5669 5666 5664
5590 5584 5574 5572 5575 5563 5561 5570 5572 5577 5579 5581 5584 5589 5595 5601 5610 5620 5627 5631 5639 5648 5653 5658 5662 5666 5668 5671 5673 5674 5675 5674 5673 5671 5669 5668 5667 5666 5665 5665 5663 5662 5661 5659
5596 5592 5581 5574 5571 5568 5573 5579 5580 5580 5583 5583 5586 5592 5599 5606 5618 5625 5633 5635 5641 5648 5652 5656 5659 5662 5664 5665 5666 5667 5666 5665 5665 5663 5661 5660 5659 5658 5656 5655 5655 5654 5653 5652
5602 5594 5584 5580 5578 5572 5576 5588 5593 5588 5587 5589 5591 5595 5600 5605 5608 5618 5632 5637 5645 5651 5655 5656 5658 5660 5661 5661 5662 5661 5659 5658 5657 5656 5654 5653 5652 5650 5648 5647 5646 5646 5645 5644
5593 5588 5581 5578 5580 5582 5589 5595 5596 5586 5584 5591 5595 5598 5601 5601 5605 5618 5631 5640 5647 5654 5657 5657 5657 5657 5658 5659 5658 5655 5653 5652 5652 5651 5648 5646 5644 5643 5640 5639 5638 5637 5637 5636
5596 5589 5584 5581 5578 5579 5597 5595 5589 5588 5594 5597 5599 5602 5606 5610 5619 5628 5636 5643 5650 5655 5658 5658 5655 5655 5656 5656 5654 5651 5649 5649 5648 5645 5642 5640 5637 5636 5634 5632 5630 5629 5628 5627
5605 5601 5594 5592 5589 5597 5600 5599 5600 5599 5599 5601 5604 5608 5611 5616 5623 5631 5639 5646 5652 5656 5657 5656 5654 5653 5652 5652 5651 5648 5646 5646 5643 5639 5636 5633 5631 5628 5626 5623 5621 5619 5618 5616
5617 5616 5607 5602 5601 5602 5603 5604 5605 5605 5605 5608 5610 5614 5617 5620 5627 5634 5641 5647 5651 5654 5655 5654 5653 5650 5649 5649 5648 5646 5645 5643 5638 5633 5629 5626 5623 5620 5617 5615 5613 5611 5609 5607
5624 5621 5611 5606 5607 5606 5607 5607 5607 5609 5610 5612 5616 5620 5623 5626 5631 5636 5641 5646 5650 5652 5653 5653 5651 5649 5648 5647 5646 5645 5642 5639 5633 5629 5625 5621 5618 5615 5612 5609 5606 5604 5602 5600
5632 5625 5614 5608 5610 5605 5606 5610 5611 5611 5613 5616 5619 5622 5627 5630 5633 5637 5641 5645 5648 5650 5651 5651 5650 5650 5649 5647 5644 5642 5640 5636 5630 5625 5621 5617 5615 5612 5609 5606 5603 5600 5597 5595